www.pogodaiklimat.ru

Погода и климат >> Архив погоды >> Россия >> Ямало-Ненецкий АО >> Красноселькупск


ПОГОДА в Красноселькупске

  • Прогноз погоды в Красноселькупске
  • Монитор погоды в Красноселькупске
  • Климат города

АРХИВ ПОГОДЫ в Красноселькупске

Время (UTC), дата Ветер
(напр.,м/с)
 
Видим.   Явления Облачность Т
(С)
Тd
(С)
f
(%)
Тe
(С)
Тes
(С)
Комфортность P
(гПа)
Po
(гПа)
Тmin
(С)
Tmax
(С)
R
(мм)
R24
(мм)
S
(см)
00 11.11 Ю 1 20 км ясно -32.1 -36.1 67 -36 -36 опасность
обморожения
1018.9 1015.4
03 11.11 ЮЗ 4 20 км 10/0
[Ac As]
-30.3 -34.1 69 -42 -42 опасность
обморожения
1016.7 1013.2 -32.0 22
06 11.11 Ю 6-10
{11}
1000 м снег {метель} 10/0 210 м
[Ac As]
-26.3 -29.9 72 -39 -39 опасность
обморожения
1011.5 1008.0
09 11.11 Ю 7-12
{13}
1000 м снег {метель} 10/0 150 м
[Ac As]
-22.0 -25.3 74 -34 -34 опасность
обморожения
1005.8 1002.4
12 11.11 Ю 6-11
{13}
1000 м снег {метель} 10/0 180 м
[As op]
-17.3 -20.0 79 -27 -27 1001.0 997.6
15 11.11 Ю 3
{10}
20 км {снег, метель} 10/10 360 м
[Cb cap]
-8.9 -10.5 88 -15 -15 996.4 993.2 -8.9 3
18 11.11 СЗ 6-10
{12}
20 км позёмок {снег, метель} 9/9 600 м
[Sc]
-8.0 -10.7 81 -16 -16 997.2 994.0
21 11.11 СВ 5 н/о н/о -12.7 -15.5 80
00 12.11 СВ 2 20 км {метель} ясно -21.8 -24.6 78
03 12.11 С 2 20 км ясно -25.5 -28.6 75 -32 -32 опасность
обморожения
1004.2 1000.8 -25.5 29
06 12.11 СЗ 1 20 км 9/8 420 м
[Sc Ac trans Ci fib]
-23.1 -26.2 76 -26 -26 1006.0 1002.6 -26.1
09 12.11 СЗ 2 20 км 10/8 500 м
[Sc Ac As]
-21.0 -24.2 75 -27 -27 1007.8 1004.4
12 12.11 штиль 0 20 км 10/10 540 м
[Sc]
-19.7 -23.1 74 -20 -20 1009.9 1006.5
15 12.11 штиль 0 10 км слабый снег 10/9 500 м
[Sc Ac As]
-18.7 -21.7 77 -19 -19 1010.9 1007.5 -18.6 0.0
18 12.11 С 2 10 км слабый снег 10/9 600 м
[Sc Ac As]
-18.6 -21.5 78 -24 -24 1013.6 1010.2
21 12.11 С 2 20 км {снег} 10/0
[Ac As]
-24.3 -27.1 78 -31 -31 опасность
обморожения
1016.2 1012.7
00 13.11 штиль 0 20 км {снег} 10/0
[Ac As]
-29.6 -33.1 71 -30 -30 1017.9 1014.4
03 13.11 штиль 0 20 км ясно -28.9 -32.2 73 -29 -29 1018.0 1014.5 -31.0 0.0 29
06 13.11 Ю 2 20 км 10/0
[Ac trans Ci fib]
-23.3 -26.4 76 -30 -30 1017.7 1014.2
09 13.11 Ю 3 20 км 10/0
[Ac As]
-20.4 -23.2 78 -28 -28 1015.1 1011.7
12 13.11 Ю 4 2000 м слабый ливневой снег 10/10 300 м
[Cb cap]
-17.6 -20.3 79 -26 -26 1012.0 1008.6
15 13.11 Ю 4 20 км в посл. час ливневой дождь 10/10 360 м
[Cb cap]
-14.8 -17.5 80 -23 -23 1009.7 1006.4 -14.8 0.4
18 13.11 Ю 4 2000 м слабый снег {ливн. осадки} 10/9 270 м
[St Ac As]
-11.3 -13.0 87 -18 -18 1006.7 1003.5
21 13.11 Ю 4 2000 м слабый снег 10/10 210 м
[Frnb Ns]
-7.1 -8.5 90 -14 -14 1004.4 1001.2
00 14.11 ЮЗ 5 2000 м снег {метель} 10/10 210 м
[Frnb Ns]
-2.6 -4.0 90 -9 -9 1003.3 1000.2
03 14.11 ЮЗ 6 2000 м ливневой снег 10/9 240 м
[Cb cap Ac As]
-2.7 -4.0 91 -10 -10 1002.3 999.2 -14.8 2 33
06 14.11 З 5 2000 м ливневой снег 10/9 270 м
[Cb cap Ac As]
-2.8 -4.2 90 -10 -10 1001.8 998.7 -2.8
09 14.11 З 5 1000 м ливневой снег {метель} 10/10 210 м
[Cb cap]
-3.4 -4.6 91 -10 -10 1001.3 998.2
12 14.11 СЗ 5 1000 м ливневой снег {метель} 10/9 300 м
[Cb cap Ac As]
-4.1 -5.5 90 -11 -11 1001.3 998.2
15 14.11 ЮЗ 3 20 км {ливн. осадки} 10/9 270 м
[St Ac As]
-4.6 -6.0 90 -10 -10 1001.2 998.1 -2.8 3
18 14.11 З 3 2000 м слабый ливневой снег 10/10 330 м
[Cb cap]
-5.0 -6.2 91 -11 -11 1001.3 998.1
21 14.11 С 4
{10}
20 км {ливн. осадки} 10/10 300 м
[Cb cap]
-7.9 -13.1 66 -14 -14 1003.4 1000.2
00 15.11 С 4 20 км 8/0
[Ac trans]
-12.9 -16.2 76 -20 -20 1007.6 1004.3
03 15.11 СЗ 5 20 км 8/0
[Ac trans]
-15.1 -17.6 81 -24 -24 1011.2 1007.9 -15.1 1 38
06 15.11 СЗ 3 20 км 1/0
[Ci fib]
-15.9 -18.7 79 -23 -23 1014.4 1011.1 -16.1
09 15.11 С 4 20 км 3/0
[Ac trans]
-16.5 -19.4 78 -25 -25 1017.7 1014.4
12 15.11 С 4 20 км ясно -17.6 -20.5 78 -26 -26 1021.5 1018.2
15 15.11 СЗ 6
{11}
20 км ясно -18.7 -21.7 77 -29 -29 1024.8 1021.4 -15.8
18 15.11 СЗ 3 20 км ясно -18.7 -21.2 81 -26 -26 1027.2 1023.8
21 15.11 З 4 20 км 9/0
[Ac trans]
-17.8 -20.2 81 -26 -26 1028.3 1024.9
00 16.11 СЗ 3 20 км 10/8 400 м
[Sc Ac As]
-12.8 -15.0 84 -19 -19 1029.2 1025.8
03 16.11 З 3 20 км {ливн. осадки, метель} 10/8
[Sc Ac As]
-10.3 -12.2 86 -16 -16 1029.8 1026.5 -19.3 1 39
06 16.11 З 2 20 км {ливн. осадки} 8/8 300 м
[Cb cap]
-12.4 -15.2 80 -17 -17 1030.3 1026.9
09 16.11 ЮЗ 4 20 км {снег} 10/8 300 м
[Sc Ac As]
-10.1 -14.3 71 -17 -17 1029.3 1026.0
12 16.11 З 4 10 км слабый снег 10/8 450 м
[Sc Ac As]
-12.2 -15.2 78 -19 -19 1028.3 1025.0
15 16.11 ЮЗ 3 20 км в посл. час снег 10/8 600 м
[Sc Ac As]
-12.5 -15.6 78 -19 -19 1027.1 1023.7 -10.0 0.0
18 16.11 ЮЗ 4 4000 м слабый ливневой снег 10/10 570 м
[Cb cap]
-13.2 -16.2 78 -21 -21 1025.8 1022.4
21 16.11 З 4 2000 м слабый ливневой снег 10/10 600 м
[Cb cap]
-14.0 -16.9 79 1024.6 1021.2
00 17.11 Ю 4 20 км {ливн. осадки} 10/10 720 м
[Sc]
-13.1 -16.0 79 -20 -20 1023.4 1020.0
03 17.11 Ю 4 4000 м слабый ливневой снег 10/8 300 м
[Cb cap Ac As]
-13.6 -16.6 78 -21 -21 1022.3 1018.9 -13.9 0.6 36
06 17.11 Ю 5 4000 м слабый ливневой снег 10/8 360 м
[Cb cap Ac As]
-14.2 -17.6 75 -23 -23 1021.5 1018.1 -14.2
09 17.11 Ю 4 2000 м слабый снег {ливн. осадки} 10/6 400 м
[Sc Ac As]
-14.4 -17.4 78 -22 -22 1020.6 1017.3
12 17.11 ЮЗ 5 2000 м слабый ливневой снег 10/8 480 м
[Cb cap Ac As]
-14.7 -17.4 80 -23 -23 1019.8 1016.5
15 17.11 Ю 4 4000 м слабый ливневой снег 10/8 300 м
[Cb cap Ac As]
-13.6 -15.9 83 -21 -21 1019.1 1015.8 -13.6 0.6

 

Местоположение метеостанции Красноселькупск (Ямало-Ненецкий АО, Россия): широта 65.70 долгота 82.45 высота над уровнем моря 25 м.

В архиве по умолчанию представлена погода в Красноселькупске за последнюю неделю. Архивные данные за месяц целиком и за предыдущие месяцы, начиная с января 2011 года, Вы можете получить, выбрав интересующий диапазон дат из раскрывающегося списка и нажав кнопку "Ввод!".


*Определитесь, кто Вы:
робот инопланетянин человек

Внимание! Время в таблицах - всемирное. Для получения местного времени необходимо прибавить поправку, которая в Красноселькупске равна 5 ч.

Смотрите также архив погоды в соседних городах и на ближайших метеорологических станциях:

Погода в Советской Речке (Красноярский край, Россия) (138 км)
Погода в Уренгое (Ямало-Ненецкий АО, Россия) (187 км)
Погода в Тольке (Ямало-Ненецкий АО, Россия) (192 км)
Погода в Курейке (Красноярский край, Россия) (231 км)
Погода в Тарко-Сале (Ямало-Ненецкий АО, Россия) (232 км)
Погода в Туруханске (Красноярский край, Россия) (251 км)
Погода в Тазовском (Ямало-Ненецкий АО, Россия) (256 км)
Погода в Новом Уренгое (Ямало-Ненецкий АО, Россия) (261 км)
Погода в Игарке (Красноярский край, Россия) (268 км)
Погода в Верещагино (Красноярский край, Россия) (287 км)

Пояснения к столбцам:

Ветер - указаны скорость ветра в м/с - средняя за 10 мин, порывы в срок и между сроками (в фигурных скобках) и направление, откуда дует ветер: С - северный, СВ - северо-восточный, В - восточный, ЮВ - юго-восточный, Ю - южный, ЮЗ - юго-западный, З - западный, СЗ - северо-западный.
Видимость - горизонтальная дальность видимости в метрах или километрах. При видимости от 1 до 10 км при отсутствии осадков обычно наблюдается дымка, при ухудшении видимости до 1 км и менее - туман. В сухую погоду видимость может ухудшаться дымом, пылью или мглою.
Явления - указаны атмосферные явления, наблюдавшиеся в срок или в последний час перед сроком; фигурными скобками обозначены явления, наблюдавшиеся между сроками (за 1-3 часа до срока); квадратными скобками обозначены град или гололедные отложения с указанием их диаметра в мм.
Облачность - указаны через наклонную черту общая и нижняя облачность в баллах и высота нижней границы облаков в метрах; квадратными скобками обозначены формы облаков: Ci - перистые, Cs - перисто-слоистые, Cc - перисто-кучевые, Ac - высококучевые, As - высокослоистые, Sc - слоисто-кучевые, Ns - слоисто-дождевые, Cu - кучевые, Cb - кучево-дождевые. Подробнее классификацию облаков см. в Атласе облаков (PDF).
T - Температура воздуха - температура, измеренная на высоте 2 м над землей.
Td - Температура точки росы - температура, при понижении до которой содержащийся в воздухе водяной пар достигнет насыщения.
f - Относительная влажность воздуха - влажноcть воздуха, измеренная на высоте 2 м над землей.
Te - Эффективная температура - температура, которую ощущает одетый по сезону человек в тени. Характеристика душности погоды. При расчете учитывается влияние влажности воздуха и скорости ветра на теплоощущения человека.
Tes - Эффективная температура на солнце - температура, которую ощущает человек, с поправкой на солнечный нагрев. Характеристика знойности погоды. Зависит от высоты солнца над горизонтом, облачности и скорости ветра. Ночью, в пасмурную погоду, а также при ветре 12 м/с и более поправка равна нулю.
P - Атмосферное давление - приведенное к уровню моря атмосферное давление.
Po - Атмосферное давление - измеренное на уровне метеостанции атмосферное давление.
Tmin - Минимальная температура - минимум температуры воздуха на высоте 2 м над землей.
Tmax - Максимальная температура - максимум температуры воздуха на высоте 2 м над землей.
R - Количество осадков - Количество выпавших осадков за период времени, мм. При наведении курсора мыши на число - период времени, за который выпало указанное количество осадков.
R24 - Количество осадков - Количество выпавших осадков за 24 часа, мм.
S - Снежный покров - Высота снежного покрова, см. При наведении курсора мыши на число - состояние снежного покрова и степень покрытия местности в баллах.